Location: Albany
(35.0170°S, 117.8920°E)
Time: 20:28:54
(UTC+08:00)

A-11 Canister half - Pass Details

Date: 27 January 2021
Orbit: 1525 x 1684 km, 47.3° (Epoch: 03 March)

Event Time Altitude Azimuth Distance (km) Brightness Sun altitude
Rises 02:36:40 0° 289° (WNW) 4,937 - -27.5°
Reaches altitude 10° 02:39:55 10° 285° (WNW) 3,950 - -27.1°
Exits shadow 02:44:17 29° 275° (W) 2,727 9.9 -26.6°
Maximum altitude 02:49:57 61° 206° (SSW) 1,865 9.4 -25.9°
Drops below altitude 10° 02:59:50 10° 126° (SE) 3,882 12.1 -24.6°
Sets 03:03:01 0° 122° (ESE) 4,848 12.9 -24.1°
